{"data":{"norad_id":48221,"epoch":"2026-05-24T23:34:00.308064Z","epoch_age_seconds":83443,"freshness":"FRESH","line1":"1 48221U 21031M   26144.98194801 -.00000215  00000+0 -61359-3 0  9997","line2":"2 48221  87.8931 294.3433 0001818 105.9125 254.2205 13.14501647245210","mean_motion":13.14501647,"eccentricity":0.0001818,"inclination_deg":87.8931,"raan_deg":294.3433,"arg_perigee_deg":105.9125,"mean_anomaly_deg":254.2205,"bstar":-0.00061359,"rev_number":24521,"period_min":109.54721915232,"perigee_km":1204.4160306137,"apogee_km":1207.1735482123,"semimajor_km":7583.931789413,"source":"CELESTRAK","updated_at":"2026-05-25T13:38:22.434618Z"}}